Location: Munkebjergskolens Observatorium
(55.3864°N, 10.3987°E)
Time: 03:09:09
(UTC+02:00)

QB50P2 - Pass Details

Date: 02 April 2023
Orbit: 581 x 596 km, 98.0° (Epoch: 31 May)

Event Time Altitude Azimuth Distance (km) Brightness Sun altitude
Rises 01:54:12 0° 27° (NNE) 2,839 ? -29.5°
Reaches altitude 10° 01:57:14 10° 51° (NE) 1,928 ? -29.4°
Enters shadow 01:59:03 15° 77° (ENE) 1,639 ? -29.4°
